EZY38CH EGGW-LTFE

Flight info

Callsign EZY38CH
Flight time N/A
Altitude 35000
Route MATCH Q295 BRAIN P44 DAGGA M85 ITVIP L10 DVR UL9 KONAN DCT KOK UL607 SPI DCT ULNOK DCT VIBOM DCT NOMBO DCT RIDAR DCT RADIZ DCT LUMUS DCT GORPA DCT DEVUL DCT REMSO DCT MEDUX UM867 KOGAT DCT DISOR DCT RIKSO UN127 IMR G80 OKESA
Aircraft A320/M-SDE2E3FGHIJ1RWXYZ/LB1

Departure

Time 2026-05-01 12:51
Airport London Luton Airport (EGGW)

Arrival

Time N/A
Airport Milas Bodrum International Airport (LTFE)
Time Latitude Longitude Altitude Speed Heading
2026-05-01 12:16 51.88081 -0.37744 524 ft 0 kts 129°
2026-05-01 12:41 51.88091 -0.37765 523 ft 2 kts 129°
2026-05-01 12:41 51.88102 -0.37787 523 ft 3 kts 144°
2026-05-01 12:41 51.88118 -0.37800 523 ft 3 kts 180°
2026-05-01 12:41 51.88136 -0.37795 523 ft 3 kts 216°
2026-05-01 12:42 51.88148 -0.37773 523 ft 3 kts 252°
2026-05-01 12:42 51.88153 -0.37746 523 ft 3 kts 248°
2026-05-01 12:42 51.88159 -0.37725 523 ft 0 kts 234°
2026-05-01 12:47 51.88152 -0.37742 523 ft 8 kts 234°
2026-05-01 12:47 51.88088 -0.37847 523 ft 18 kts 219°
2026-05-01 12:48 51.87983 -0.37976 523 ft 19 kts 212°
2026-05-01 12:48 51.87857 -0.37998 523 ft 19 kts 157°
2026-05-01 12:48 51.87777 -0.37838 523 ft 19 kts 114°
2026-05-01 12:48 51.87720 -0.37639 519 ft 22 kts 116°
2026-05-01 12:49 51.87632 -0.37467 522 ft 19 kts 160°
2026-05-01 12:49 51.87512 -0.37513 521 ft 19 kts 236°
2026-05-01 12:49 51.87471 -0.37723 523 ft 23 kts 255°
2026-05-01 12:49 51.87425 -0.37981 524 ft 24 kts 245°
2026-05-01 12:50 51.87289 -0.38110 523 ft 20 kts 186°
2026-05-01 12:50 51.87230 -0.38253 522 ft 18 kts 281°
2026-05-01 12:50 51.87199 -0.38306 520 ft 8 kts 104°
2026-05-01 12:50 51.87218 -0.38249 522 ft 3 kts 63°
2026-05-01 12:51 51.87233 -0.38171 523 ft 22 kts 75°
2026-05-01 12:51 51.87347 -0.37511 522 ft 99 kts 75°
2026-05-01 12:51 51.87910 -0.34257 1150 ft 170 kts 79°
2026-05-01 12:52 51.88224 -0.32387 2048 ft 176 kts 79°
2026-05-01 12:52 51.88936 -0.28224 2807 ft 213 kts 76°
2026-05-01 12:52 51.89355 -0.25789 3080 ft 236 kts 77°